Skip Page Navigation
NASA JPL Caltech
NASA Logo - Jet Propulsion Laboratory + View the NASA Portal
+ Center for Near-Earth Object Studies
JPL Home Earth Solar System Stars & Galaxies Technology
JPL Solar System Dynamics
BODIES ORBITS EPHEMERIDES TOOLS PHYSICAL DATA DISCOVERY FAQ SITE MAP
IMPORTANT: The SSD Announcement email list is now available. Major changes are coming in the near future, including possible hostname and/or URL changes. To be notified of such changes, subscribe to this email list.

Please visit this page for more details.


JPL Small-Body Database Browser
Search: [ help ]  
212244 (2005 JU57)
Classification: Main-belt Asteroid          SPK-ID: 2212244
Ephemeris | Orbit Diagram | Orbital Elements | Mission Design | Physical Parameters | Discovery Circumstances | Close-Approach Data ]

[ show orbit diagram ]
Orbital Elements at Epoch 2458600.5 (2019-Apr-27.0) TDB
Reference: JPL 8 (heliocentric ecliptic J2000)
 Element Value Uncertainty (1-sigma)   Units 
e .01053194772866455 9.6525e-08  
a 2.702764166516548 3.9827e-08 au
q 2.674298795591889 2.455e-07 au
i .8565258642071458 8.4695e-06 deg
node 291.6106177849263 0.00065138 deg
peri 261.7609536292828 0.00077293 deg
M 86.81605054108411 0.00041904 deg
tp 2458209.111392974393
(2018-Mar-31.61139297)
0.0018872 TDB
period 1622.970610285251
4.44
3.5873e-05
9.821e-08
d
yr
n .2218154769523071 4.9029e-09 deg/d
Q 2.731229537441208 4.0246e-08 au
  Orbit Determination Parameters
   # obs. used (total)      131  
   data-arc span      8499 days (23.27 yr)  
   first obs. used      1995-01-07  
   last obs. used      2018-04-15  
   planetary ephem.      DE431  
   SB-pert. ephem.      SB431-N16  
   condition code      0  
   norm. resid. RMS      .62301  
   source      ORB  
   producer      Otto Matic  
   solution date      2019-Jul-14 03:55:41  

Additional Information
 Earth MOID = 1.66982 au 
 Jupiter MOID = 2.22898 au 
 T_jup = 3.366 
[ show covariance matrix ]

Ephemeris | Orbit Diagram | Orbital Elements | Mission Design | Physical Parameters | Discovery Circumstances | Close-Approach Data ]

Physical Parameter Table
Parameter Symbol Value Units Sigma Reference Notes
absolute magnitude H 17.0   n/a MPO450007  

212244 (2005 JU57)          Discovered 2005-May-07 by Spacewatch at Kitt Peak
Reference: 20090409/Numbers.arcLast Updated: 2009-04-10

[ hide close-approach data ]
Close-Approach Data   ...sorted by Date/Time (TDB)
Date/Time (TDB) Time Uncertainty
(days_HH:MM)
Body Nominal Distance (au) Minimum Distance (au) Maximum Distance (au) V-relative (km/s) V-infinity (km/s) JD (TDB) Time Uncertainty (minutes) Semi-major axis (km) Semi-minor axis (km) range-LOV angle (deg) N-sigma BP Orbit Ref. Reference Modified
2124-Jul-09 10:52 00:04 Juno 0.0449125315405372 0.0448661462689063 0.0449589169879702 6.17785613471203 6.17785609086495 2497024.952597167 4.10923558008207 2316.20802385853 79.6577821793058 3.44031590760246 5827.56321757719 T 8 CATAB v2.0e-lin.ifort 2019-Jul-14 03:55:45 2019-Jul-14 03:55

Alternate Designations
 2005 JU57 = 2004 BQ128 
Ephemeris | Orbit Diagram | Orbital Elements | Mission Design | Physical Parameters | Discovery Circumstances | Close-Approach Data ]
ABOUT SSD CREDITS/AWARDS PRIVACY/COPYRIGHT GLOSSARY LINKS
FirstGov 2019-Dec-11 14:51 UT
(server date/time)  
NASA Home Page
Site Manager:   Ryan S. Park
Webmaster  Alan B. Chamberlin